Regional Weather Roundup
Issued by NWS

Home | Current Version | Previous Version | Graphics & Text | Print | Product List | Glossary On
Versions: 1 2 3 4 5 6 7 8 9 10 11 12 13 14 15 16 17 18 19 20 21 22 23 24 25 26 27 28 29 30 31 32 33 34 35 36 37 38 39 40 41 42 43 44 45 46 47 48 49 50
000
ASUS43 KLOT 140700
RWRIL

ILLINOIS REGIONAL WEATHER ROUNDUP
NATIONAL WEATHER SERVICE CHICAGO/ROMEOVILLE IL
200 AM CDT MON JUL 14 2014

NOTE: "FAIR" INDICATES FEW OR NO CLOUDS BELOW 12,000 FEET WITH NO
SIGNIFICANT WEATHER AND/OR OBSTRUCTIONS TO VISIBILITY.

* THESE STATIONS ARE NOT UNDER NWS QUALITY CONTROL. THEY ALSO MAY NOT
  REPORT WEATHER SUCH AS PRECIPITATION OR FOG.

ILZ001-002-007-009-015-016-024-140800-
NORTHWEST ILLINOIS

CITY           SKY/WX    TMP DP  RH WIND       PRES   REMARKS
MOLINE         CLEAR     66  63  90 CALM      29.91F
STERLING*      MOCLDY    63  61  94 CALM      29.91F VSB 1/2
$$

ILZ003-004-008-010-011-017-018-140800-
NORTH CENTRAL ILLINOIS

CITY           SKY/WX    TMP DP  RH WIND       PRES   REMARKS
ROCKFORD       PTCLDY    61  57  87 S3        29.92F
FREEPORT*      PTCLDY    58  55  90 CALM      29.93F
$$

ILZ005-006-012>014-019>023-140800-
NORTHEAST ILLINOIS

CITY           SKY/WX    TMP DP  RH WIND       PRES   REMARKS
CHICAGO-OHARE  PTCLDY    68  51  54 NW6       29.90F
CHICAGO-MIDWAY MOCLDY    71  57  61 NW7       29.90S
AURORA         CLEAR     63  59  87 W5        29.92F
LANSING*       PTCLDY    69  59  68 NW6       29.90F
WAUKEGAN       CLEAR     61  58  90 CALM      29.89F
DUPAGE AIRPORT CLEAR     64  53  67 CALM      29.91S
WHEELING       CLEAR     67  52  58 NW5       29.91F
NORTHERLY ISL    N/A     71  51  49 NW7         N/A
$$

LMZ740>746-140800-
SOUTHERN LAKE MICHIGAN

STATION/POSITION SKY/WX   TEMP    WIND        PRES    VSBY  WAVE
                          AIR SEA DIR/SP/G                  HT/PER
                          (F)     (DEG/KT/KT) (MB)    (MI)  (FT/S)
SOUTHERN BUOY              67 64  290/  6/  6 1011.9S         1
WAUKEGAN HARBOR            68     310/  5/  6 1013.5S
HARRISON CRIB              73     290/ 11/ 13   N/A
BURNHAM HARBOR             71     290/  7/ 10   N/A
CALUMET HARBOR             72     280/  3/  9 1013.2F
MICHIGAN CITY              72     230/ 13/ 15   N/A
$$

ILZ025>027-034>036-040-047-049-050-058-095>099-140800-
WEST-CENTRAL ILLINOIS

CITY           SKY/WX    TMP DP  RH WIND       PRES   REMARKS
QUINCY         MOCLDY    69  67  93 SW5       29.93S
GALESBURG*     CLEAR     65  64  94 CALM      29.91F
MACOMB*        MOCLDY    68  68 100 W3        29.94F
$$

ILZ028>032-037-038-041>044-048-051>054-059>061-140800-
CENTRAL ILLINOIS

CITY           SKY/WX    TMP DP  RH WIND       PRES   REMARKS
DECATUR        MOCLDY    70  67  90 CALM      29.93S
PEORIA         CLEAR     70  65  84 CALM      29.91F
SPRINGFIELD    MOCLDY    70  68  93 SW3       29.93S
TAYLORVILLE    NOT AVBL
$$

ILZ033-039-045-046-055>057-062-063-140800-
EAST-CENTRAL ILLINOIS

CITY           SKY/WX    TMP DP  RH WIND       PRES   REMARKS
CHAMPAIGN      MOCLDY    70  67  90 NW5       29.92S
MATTOON        CLOUDY    74  70  87 CALM      29.92S
$$

ILZ079-100>102-140800-
SOUTHWEST ILLINOIS

CITY           SKY/WX    TMP DP  RH WIND       PRES   REMARKS
BELLEVILLE     LGT RAIN  73  73 100 CALM      29.92F
CAHOKIA*       CLOUDY    74  72  93 CALM      29.93S
SPARTA*        TSTM      70  68  94 S6        29.95S
$$

ILZ064>066-069>071-074>076-080>082-084>086-088>090-092>094-140800-
SOUTH-CENTRAL ILLINOIS

CITY           SKY/WX    TMP DP  RH WIND       PRES   REMARKS
CARBONDALE     TSTM      72  69  90 W16       29.97R FOG
MT. VERNON     CLOUDY    72  66  83 W5        29.95F
SALEM*         TSTM      74  73  95 S6        29.94F
$$

ILZ067-068-072-073-078-083-087-091-140800-
SOUTHEAST ILLINOIS

CITY           SKY/WX    TMP DP  RH WIND       PRES   REMARKS
HARRISBURG*    CLOUDY    73  72  96 CALM      29.96F
ROBINSON*      TSTM      73  71  92 W6G16     29.92F
$$

ABBREVIATIONS USED IN REMARKS
   TC - TEMPERATURE IN CELSIUS
  WCI - WIND CHILL INDEX
   HX - HEAT INDEX
  VSB - VISIBILITY
$$




USA.gov is the U.S. government's official web portal to all federal, state and local government web resources and services.